SITRO-AIS 7 (FARTUSHNIY)

Last updated on Thu Nov 21 2024 00:03:40 GMT+0000 (Coordinated Universal Time)

1 57194U 23091AE 24325.54060718 .00014318 00000+0 80187-3 0 9991 2 57194 97.5907 16.6862 0014680 309.9057 50.0883 15.13440410 77108
UTC large
Height (km)
Speed (km/s)
/
Latitude / Longitude
Inclination (degrees)
Orbital Period (minutes)
Azimuth
Elevation
Range (km)
Doppler Factor

Next 0 passes for location: London (51.5072 / 0.1276)

Sorry there are no passes over London.